Weather History for Starkville, MS

Change the Weather History Date:

Monday, March 12, 2012

  Actual Average Record
Temperature  
Mean Temperature 68 °F -  
Max Temperature 73 °F 66 °F 73 °F (2012)
Min Temperature 62 °F 43 °F 30 °F (2013)
Cooling Degree Days 2    
Growing Degree Days 18 (Base 50)    
Moisture  
Dew Point 62 °F    
Average Humidity 84    
Maximum Humidity 100    
Minimum Humidity 69    
Precipitation  
Precipitation 0.10 in - - ()
Sea Level Pressure  
Sea Level Pressure 30.14 in    
Wind  
Wind Speed 8 mph (SSE)    
Max Wind Speed 14 mph    
Max Gust Speed 22 mph    
Visibility 9 miles    
Events Rain    
Averages and records for this station are not official NWS values.
T = Trace of Precipitation, MM = Missing Value Source: NWS Daily Summary

Daily Weather History Graph

Daily Weather History Graph

Search for Another Location

Airport:

Trip Planner

Search our weather history database for the weather conditions in past years. The results will help you decide how hot, cold, wet, or windy it might be!

Date:

Astronomy

Mar. 12, 2012 Rise Set
Actual Time 7:09 AM CDT 7:01 PM CDT
Civil Twilight 6:44 AM CDT 7:26 PM CDT
Nautical Twilight 6:15 AM CDT 7:54 PM CDT
Astronomical Twilight 5:46 AM CDT 8:23 PM CDT
Moon No Moon Rise 9:47 AM CDT (3/12)
Length of Visible Light 12h 41m
Length of Day
11h 52m
Waning Gibbous, 76% of the Moon is Illuminated
Mar 12
Waning Gibbous
Mar 14
Last Quarter
Mar 22
New
Mar 30
First Quarter
Apr 6
Full

Hourly Weather History & Observations

Time (CDT) Temp. Dew Point Humidity Pressure Visibility Wind Dir Wind Speed Gust Speed Precip Events Conditions
12:55 AM 62.6 °F 60.8 °F 94% 30.20 in 7.0 mi SE 5.8 mph - 0.02 in Rain Light Rain
1:15 AM 62.6 °F 60.8 °F 94% 30.19 in 5.0 mi SE 6.9 mph - 0.06 in Rain Rain
2:35 AM 62.6 °F 60.8 °F 94% 30.13 in 10.0 mi SE 11.5 mph 21.9 mph N/A   Mostly Cloudy
3:15 AM 62.6 °F 60.8 °F 94% 30.14 in 10.0 mi South 8.1 mph - N/A   Overcast
3:35 AM 62.6 °F 60.8 °F 94% 30.13 in 7.0 mi SSE 11.5 mph 20.7 mph N/A   Overcast
4:15 AM 62.6 °F 60.8 °F 94% 30.12 in 5.0 mi SE 13.8 mph - N/A   Overcast
4:35 AM 62.6 °F 60.8 °F 94% 30.13 in 5.0 mi SSE 10.4 mph - N/A   Overcast
4:55 AM 62.6 °F 60.8 °F 94% 30.12 in 5.0 mi SSE 10.4 mph 16.1 mph N/A   Overcast
5:35 AM 62.6 °F 60.8 °F 94% 30.13 in 7.0 mi SSE 10.4 mph - N/A   Overcast
5:55 AM 62.6 °F 60.8 °F 94% 30.13 in 7.0 mi SSE 9.2 mph - N/A   Overcast
6:15 AM 62.6 °F 60.8 °F 94% 30.14 in 7.0 mi SSE 8.1 mph - N/A   Overcast
6:55 AM 62.6 °F 60.8 °F 94% 30.14 in 10.0 mi SSE 9.2 mph - N/A   Overcast
7:15 AM 62.6 °F 60.8 °F 94% 30.14 in 10.0 mi SSE 9.2 mph - N/A   Overcast
7:35 AM 62.6 °F 62.6 °F 100% 30.14 in 10.0 mi SE 9.2 mph - N/A   Overcast
7:55 AM 62.6 °F 62.6 °F 100% 30.15 in 10.0 mi SE 9.2 mph - N/A   Overcast
8:15 AM 62.6 °F 62.6 °F 100% 30.16 in 7.0 mi SSE 10.4 mph - N/A   Overcast
8:35 AM 64.4 °F 62.6 °F 94% 30.17 in 10.0 mi SSE 12.7 mph - N/A   Overcast
8:55 AM 64.4 °F 62.6 °F 94% 30.17 in 10.0 mi SSE 10.4 mph 17.3 mph N/A   Overcast
9:15 AM 64.4 °F 62.6 °F 94% 30.17 in 10.0 mi SSE 12.7 mph 18.4 mph N/A   Overcast
9:35 AM 64.4 °F 62.6 °F 94% 30.17 in 10.0 mi SSE 11.5 mph 17.3 mph N/A   Overcast
10:35 AM 66.2 °F 62.6 °F 88% 30.18 in 10.0 mi SSE 10.4 mph - N/A   Overcast
10:55 AM 68.0 °F 62.6 °F 83% 30.18 in 10.0 mi SSE 11.5 mph - N/A   Mostly Cloudy
11:15 AM 68.0 °F 62.6 °F 83% 30.18 in 10.0 mi SSE 13.8 mph 17.3 mph N/A   Mostly Cloudy
11:35 AM 69.8 °F 62.6 °F 78% 30.18 in 10.0 mi SSE 11.5 mph - N/A   Overcast
11:55 AM 69.8 °F 64.4 °F 83% 30.17 in 10.0 mi SSE 10.4 mph - N/A   Overcast
12:15 PM 69.8 °F 62.6 °F 78% 30.17 in 10.0 mi South 5.8 mph - N/A   Overcast
12:35 PM 68.0 °F 64.4 °F 88% 30.17 in 10.0 mi SSE 5.8 mph - 0.01 in Rain Light Rain
1:35 PM 68.0 °F 64.4 °F 88% 30.14 in 10.0 mi SE 4.6 mph - 0.01 in Rain Light Rain
1:55 PM 69.8 °F 64.4 °F 83% 30.14 in 10.0 mi SE 9.2 mph - 0.01 in   Scattered Clouds
2:15 PM 71.6 °F 62.6 °F 73% 30.13 in 10.0 mi SSE 8.1 mph - N/A   Mostly Cloudy
2:35 PM 73.4 °F 62.6 °F 69% 30.13 in 10.0 mi SSE 9.2 mph - N/A   Overcast
2:55 PM 73.4 °F 62.6 °F 69% 30.12 in 10.0 mi SSE 10.4 mph - N/A   Overcast
3:15 PM 73.4 °F 62.6 °F 69% 30.12 in 10.0 mi SSE 6.9 mph - N/A   Overcast
3:55 PM 73.4 °F 62.6 °F 69% 30.11 in 10.0 mi SSE 8.1 mph - N/A   Overcast
4:15 PM 73.4 °F 62.6 °F 69% 30.11 in 10.0 mi South 5.8 mph - N/A   Overcast
4:35 PM 73.4 °F 62.6 °F 69% 30.10 in 10.0 mi South 6.9 mph - N/A   Overcast
4:55 PM 73.4 °F 62.6 °F 69% 30.11 in 10.0 mi SSE 6.9 mph - N/A   Overcast
5:15 PM 73.4 °F 62.6 °F 69% 30.11 in 10.0 mi South 6.9 mph - N/A   Overcast
5:35 PM 73.4 °F 62.6 °F 69% 30.11 in 10.0 mi SSE 5.8 mph - N/A   Overcast
5:55 PM 73.4 °F 62.6 °F 69% 30.11 in 10.0 mi South 4.6 mph - N/A   Overcast
6:15 PM 73.4 °F 62.6 °F 69% 30.11 in 10.0 mi SSE 6.9 mph - N/A   Overcast
6:35 PM 71.6 °F 62.6 °F 73% 30.11 in 10.0 mi South 6.9 mph - N/A   Mostly Cloudy
7:15 PM 69.8 °F 60.8 °F 73% 30.11 in 10.0 mi South 6.9 mph - N/A   Clear
7:35 PM 69.8 °F 60.8 °F 73% 30.12 in 10.0 mi South 4.6 mph - N/A   Clear
8:35 PM 68.0 °F 60.8 °F 78% 30.13 in 10.0 mi South 5.8 mph - N/A   Clear
8:55 PM 68.0 °F 60.8 °F 78% 30.14 in 10.0 mi South 5.8 mph - N/A   Clear
9:15 PM 66.2 °F 60.8 °F 83% 30.14 in 10.0 mi South 4.6 mph - N/A   Scattered Clouds
9:35 PM 66.2 °F 60.8 °F 83% 30.15 in 10.0 mi South 4.6 mph - N/A   Scattered Clouds
10:15 PM 64.4 °F 60.8 °F 88% 30.15 in 10.0 mi South 4.6 mph - N/A   Clear
10:35 PM 64.4 °F 60.8 °F 88% 30.16 in 10.0 mi South 4.6 mph - N/A   Clear
10:55 PM 64.4 °F 60.8 °F 88% 30.16 in 10.0 mi South 5.8 mph - N/A   Clear
11:15 PM 64.4 °F 60.8 °F 88% 30.17 in 7.0 mi South 3.5 mph - N/A   Clear
11:35 PM 62.6 °F 60.8 °F 94% 30.17 in 10.0 mi South 4.6 mph - N/A   Clear
11:55 PM 62.6 °F 60.8 °F 94% 30.16 in 10.0 mi SSE 5.8 mph - N/A   Clear